This is the latest recevied weather packets stored in our database for station/object KGRR-WX. If no packets are shown the sender has not sent any weather packets the latest 10 day(s).
| Time | Temp. | Humidity | Pressure | Rain* | Wind** | Luminosity | Snow |
|---|---|---|---|---|---|---|---|
| 1777186816 | 5.56° C | 86% | 987.5 hPa | 0 mm | - | - | - |
| 1777185905 | 5.56° C | 82% | 988 hPa | 0 mm | - | - | - |
| 1777185019 | 5.56° C | 84% | 987.4 hPa | 0 mm | - | - | - |
| 1777184105 | 6.11° C | 84% | 987.5 hPa | 0 mm | - | - | - |
| 1777183224 | 6.11° C | 84% | 987.5 hPa | 0 mm | - | - | - |
| 1777182305 | 6.67° C | 83% | 988.5 hPa | 0 mm | - | - | - |
| 1777181411 | 6.67° C | 84% | 988.4 hPa | 0 mm | - | - | - |
| 1777180505 | 7.22° C | 84% | 988.5 hPa | 0 mm | - | - | - |
| 1777179622 | 7.78° C | 84% | 988.5 hPa | 0 mm | - | - | - |
| 1777178705 | 7.78° C | 83% | 988.3 hPa | 0 mm | - | - | - |
| 1777177820 | 7.78° C | 80% | 987.7 hPa | 0 mm | - | - | - |
| 1777176905 | 8.33° C | 80% | 987.7 hPa | 0 mm | - | - | - |
| 1777176024 | 8.89° C | 80% | 987.7 hPa | 0 mm | - | - | - |
| 1777175105 | 8.89° C | 81% | 988.4 hPa | 0 mm | - | - | - |
| 1777174220 | 8.89° C | 80% | 988.4 hPa | 0 mm | - | - | - |
| 1777173305 | 10° C | 80% | 988.4 hPa | 0 mm | - | - | - |
| 1777172421 | 10° C | 80% | 988.4 hPa | 0 mm | - | - | - |
| 1777171505 | 10° C | 79% | 986.5 hPa | 0 mm | - | - | - |
| 1777170619 | 10° C | 83% | 988.1 hPa | 0 mm | - | - | - |
| 1777169705 | 10° C | 83% | 988.1 hPa | 0 mm | - | - | - |
| 1777168821 | 10.56° C | 83% | 988.1 hPa | 0 mm | - | - | - |
| 1777167905 | 10.56° C | 80% | 987.4 hPa | 0 mm | - | - | - |
| 1777167019 | 11.11° C | 80% | 987.4 hPa | 0 mm | - | - | - |
| 1777166105 | 11.67° C | 80% | 987.4 hPa | 0 mm | - | - | - |
| 1777165221 | 11.67° C | 80% | 987.4 hPa | 0 mm | - | - | - |
* Rain latest hour (hover to see other rain measurements)
** Current wind speed in m/s (hover to see current wind gust speed)